{"data":{"norad_id":54126,"epoch":"2026-09-19T21:18:59.535648Z","epoch_age_seconds":78656,"freshness":"FRESH","line1":"1 54126U 22138P   26262.88818907  .00000070  00000+0  14176-3 0  9999","line2":"2 54126  87.9108 286.1044 0001908  81.5499 278.5850 13.19723647189323","mean_motion":13.19723647,"eccentricity":0.0001908,"inclination_deg":87.9108,"raan_deg":286.1044,"arg_perigee_deg":81.5499,"mean_anomaly_deg":278.585,"bstar":0.00014176,"rev_number":18932,"period_min":109.11375296437,"perigee_km":1184.3325272021,"apogee_km":1187.2189162967,"semimajor_km":7563.9127217494,"source":"CELESTRAK","updated_at":"2026-09-20T09:00:44.717613Z"}}